DW8214 Vilamoura PT current weather conditions

sailwx.info

Wind from 034

Air temperature 14.4° C
Dewpoint 13.0° C

Last reported at 2018-Nov-22 10:00 UTC.
Time now 2018-Nov-22 10:26 UTC

Location: N 37°06' W 008°07'.
View on Google Maps.

See reports from other nearby stations

  
Tides and Currents Weather Stations Pressure Air Temp Water Temp Dewpoint Dewpoint Depression Visibility Wind Speed Wind Dir Waves Ship Positions
date/time (UTC)wind fromknots sea level pressurealtimeterstation pressurevisibilityair tempwater tempwave heightnotes
2018-Nov-22 10:00 034 14.4
2018-Nov-22 09:46 034 13.9
2018-Nov-22 09:30 034 13.9
2018-Nov-22 09:15 038 13.3
2018-Nov-22 09:01 038 13.3
2018-Nov-22 08:45 038 12.8
2018-Nov-22 08:30 068 12.8
2018-Nov-22 08:16 068 12.8
2018-Nov-22 08:00 068 12.8
2018-Nov-22 07:45 068 13.3
2018-Nov-22 07:30 068 13.3
2018-Nov-22 07:15 068 12.8
2018-Nov-22 07:00 068 12.8
2018-Nov-22 06:45 068 12.8
2018-Nov-22 06:30 068 12.8
2018-Nov-22 06:15 068 12.8
2018-Nov-22 06:00 068 12.8
2018-Nov-22 05:45 068 12.8
2018-Nov-22 05:30 068 12.8
2018-Nov-22 05:15 086 12.8
2018-Nov-22 05:00 086 12.8
2018-Nov-22 04:45 086 12.8
2018-Nov-22 04:30 086 12.8
2018-Nov-22 04:17 086 12.8
2018-Nov-22 04:15 086 12.8
2018-Nov-22 04:01 086 12.8
2018-Nov-22 03:46 086 12.8
2018-Nov-22 03:31 086 12.8
2018-Nov-22 03:16 086 12.8
2018-Nov-22 03:01 086 12.8
2018-Nov-22 02:46 086 12.8
2018-Nov-22 02:31 086 12.8
2018-Nov-22 02:16 086 12.2
2018-Nov-22 02:02 086 12.2
2018-Nov-22 01:48 086 12.8
2018-Nov-22 01:31 086 12.2
2018-Nov-22 01:17 086 12.2
2018-Nov-22 01:01 086 12.2
2018-Nov-22 00:46 086 12.2
2018-Nov-22 00:31 086 12.2
2018-Nov-22 00:16 086 12.2
2018-Nov-22 00:01 086 12.2
2018-Nov-21 23:45 086 12.2
2018-Nov-21 23:31 086 12.2
2018-Nov-21 23:15 086 12.2
2018-Nov-21 23:01 086 12.2
2018-Nov-21 22:47 086 12.2
2018-Nov-21 22:30 086 12.2
2018-Nov-21 22:16 086 12.2
2018-Nov-21 22:00 199 12.8
2018-Nov-21 21:46 199 12.8
2018-Nov-21 21:30 199 12.8
2018-Nov-21 21:15 199 12.2
2018-Nov-21 21:00 199 12.2
2018-Nov-21 20:46 199 12.8
2018-Nov-21 20:30 199 12.8
2018-Nov-21 20:15 199 13.3
2018-Nov-21 20:01 199 13.3
2018-Nov-21 19:45 199 13.3
2018-Nov-21 19:30 199 13.9
2018-Nov-21 19:15 199 13.9
2018-Nov-21 19:01 199 14.4
2018-Nov-21 18:46 199 14.4
2018-Nov-21 18:31 199 15.0
2018-Nov-21 18:15 199 15.0
2018-Nov-21 18:00 199 15.0
2018-Nov-21 17:45 199 15.0
2018-Nov-21 17:30 199 0 gusting 3 15.6
2018-Nov-21 17:15 207 16.1
2018-Nov-21 17:00 207 16.7
2018-Nov-21 16:46 207 16.7
2018-Nov-21 16:30 259 16.7
2018-Nov-21 16:15 234 16.7
2018-Nov-21 16:00 296 17.2
2018-Nov-21 15:45 167 17.8
2018-Nov-21 15:30 213 17.8
2018-Nov-21 15:15 194 0 gusting 6 17.8
2018-Nov-21 15:00 238 0 gusting 6 18.3
2018-Nov-21 14:45 250 0 gusting 8 18.3
2018-Nov-21 14:30 221 0 gusting 8 18.3
2018-Nov-21 14:15 196 1 gusting 10 18.3
2018-Nov-21 14:00 265 18.3
2018-Nov-21 13:45 236 18.9
2018-Nov-21 13:30 234 1 gusting 11 18.3
2018-Nov-21 13:15 244 0 gusting 12 18.3
2018-Nov-21 13:00 200 2 gusting 8 18.3
2018-Nov-21 12:45 192 1 gusting 6 18.3
2018-Nov-21 12:30 190 18.3
2018-Nov-21 12:15 216 3 gusting 7 18.3
2018-Nov-21 12:00 225 0 gusting 6 18.3
2018-Nov-21 11:32 229 18.3
2018-Nov-21 11:16 192 0 gusting 6 18.3
2018-Nov-21 11:01 205 18.3
2018-Nov-21 10:46 231 17.8
2018-Nov-21 10:32 194 17.8
2018-Nov-21 10:16 220 17.2
2018-Nov-21 10:01 220 16.7
2018-Nov-21 09:46 220 16.1
2018-Nov-21 09:30 220 15.0
2018-Nov-21 09:16 220 13.9
2018-Nov-21 09:00 220 13.3
2018-Nov-21 08:45 220 12.8
2018-Nov-21 08:30 219 12.2
2018-Nov-21 08:15 220 11.7
2018-Nov-21 08:00 211 11.7
2018-Nov-21 07:45 211 11.1
2018-Nov-21 07:30 211 11.1
2018-Nov-21 07:15 211 11.7
2018-Nov-21 07:02 211 11.7
2018-Nov-21 06:46 211 11.7
2018-Nov-21 06:31 211 11.7
2018-Nov-21 06:16 211 12.2
2018-Nov-21 06:03 211 12.2
2018-Nov-21 05:46 211 12.2
2018-Nov-21 05:31 211 12.2
2018-Nov-21 05:16 211 12.2
2018-Nov-21 05:01 211 12.2
2018-Nov-21 04:46 211 12.2
2018-Nov-21 04:32 211 12.2
2018-Nov-21 04:16 211 12.2
2018-Nov-21 04:01 211 12.2
2018-Nov-21 03:46 211 12.2
2018-Nov-21 03:33 211 12.2
2018-Nov-21 03:17 211 12.2
2018-Nov-21 03:01 211 11.7
2018-Nov-21 02:46 211 11.7
2018-Nov-21 02:31 211 11.7
2018-Nov-21 02:16 211 11.7
2018-Nov-21 02:01 211 11.7
2018-Nov-21 01:47 211 12.2
2018-Nov-21 01:31 211 12.2
2018-Nov-21 01:16 211 12.2
2018-Nov-21 01:00 211 12.2
2018-Nov-21 00:46 211 12.2
2018-Nov-21 00:31 211 12.2
2018-Nov-21 00:16 211 12.2
2018-Nov-21 00:01 211 12.8
2018-Nov-20 23:46 211 12.8
2018-Nov-20 23:31 211 12.8
2018-Nov-20 23:16 211 12.8
2018-Nov-20 23:01 211 12.8
2018-Nov-20 22:45 211 12.8
2018-Nov-20 22:31 211 13.3
2018-Nov-20 22:16 211 13.3
2018-Nov-20 22:01 211 13.3
2018-Nov-20 21:45 211 13.3
2018-Nov-20 21:31 211 13.3
2018-Nov-20 21:15 211 13.3
2018-Nov-20 21:01 211 13.3
2018-Nov-20 20:46 211 13.3
2018-Nov-20 20:30 211 13.9
2018-Nov-20 20:15 211 13.9
2018-Nov-20 20:00 211 13.9
2018-Nov-20 19:45 211 13.9
2018-Nov-20 19:30 211 14.4
2018-Nov-20 19:15 211 14.4
2018-Nov-20 19:00 211 14.4
2018-Nov-20 18:45 252 14.4
2018-Nov-20 18:30 252 15.0
2018-Nov-20 18:15 252 15.0
2018-Nov-20 18:00 252 15.0
2018-Nov-20 17:45 308 15.0
2018-Nov-20 17:00 247 15.6
2018-Nov-20 16:45 242 15.6
2018-Nov-20 16:30 206 15.6
2018-Nov-20 16:15 289 16.1
2018-Nov-20 16:00 286 16.7
2018-Nov-20 15:45 275 0 gusting 6 17.2
2018-Nov-20 15:30 281 17.8
2018-Nov-20 15:15 242 0 gusting 6 18.3
2018-Nov-20 15:01 195 18.3
2018-Nov-20 15:00 296 18.3
2018-Nov-20 14:46 220 17.8
2018-Nov-20 14:31 225 16.7
2018-Nov-20 14:17 292 16.1
2018-Nov-20 14:01 305 16.1
2018-Nov-20 13:47 182 16.1
2018-Nov-20 13:31 190 16.7
2018-Nov-20 13:17 331 16.7
2018-Nov-20 13:01 215 0 gusting 11 17.2
2018-Nov-20 12:47 215 17.2
2018-Nov-20 12:31 254 0 gusting 7 17.8
2018-Nov-20 12:16 246 18.3
2018-Nov-20 12:02 229 0 gusting 12 18.9
2018-Nov-20 11:47 224 2 gusting 9 18.9
2018-Nov-20 11:31 277 18.9
2018-Nov-20 11:16 281 18.3
2018-Nov-20 11:01 266 0 gusting 4 18.3
2018-Nov-20 10:46 240 0 gusting 8 17.2
2018-Nov-20 10:31 287 16.7
2018-Nov-20 10:16 266 16.1
2018-Nov-20 10:01 260 15.0